Weather History for Aberdeen / Amory, MS

Change the Weather History Date:

Sunday, February 24, 2013

  Actual Average (KCBM) Record (KCBM)
Temperature  
Mean Temperature 50 °F -  
Max Temperature 69 °F 58 °F 77 °F (2011)
Min Temperature 30 °F 40 °F 28 °F (1999)
Degree Days  
Heating Degree Days 16    
Moisture  
Dew Point 37 °F    
Average Humidity 65    
Maximum Humidity 87    
Minimum Humidity 51    
Precipitation  
Precipitation 0.00 in - - ()
Sea Level Pressure  
Sea Level Pressure 30.02 in    
Wind  
Wind Speed 2 mph (NE)    
Max Wind Speed 8 mph    
Max Gust Speed -    
Visibility 8 miles    
Events      
Averages and records for this station are not official NWS values.
T = Trace of Precipitation, MM = Missing Value Source: NWS Daily Summary

Daily Weather History Graph

Daily Weather History Graph

Search for Another Location

Airport:

Trip Planner

Search our weather history database for the weather conditions in past years. The results will help you decide how hot, cold, wet, or windy it might be!

Date:

Astronomy

Feb. 24, 2013 Rise Set
Actual Time 6:28 AM CST 5:46 PM CST
Civil Twilight 6:03 AM CST 6:11 PM CST
Nautical Twilight 5:34 AM CST 6:40 PM CST
Astronomical Twilight 5:05 AM CST 7:09 PM CST
Moon 4:57 PM CST (2/24) 5:24 AM CST (2/24)
Length of Visible Light 12h 08m
Length of Day
11h 18m
Waxing Gibbous, 99% of the Moon is Illuminated
Feb 24
Waxing Gibbous
Feb 25
Full
Mar 4
Last Quarter
Mar 11
New
Mar 19
First Quarter

Hourly Weather History & Observations

Time (CST) Temp. Windchill Dew Point Humidity Pressure Visibility Wind Dir Wind Speed Gust Speed Precip Events Conditions
12:15 AM 35.6 °F - 28.4 °F 75% 30.01 in 10.0 mi Calm Calm - N/A   Clear
12:35 AM 33.8 °F - 28.4 °F 81% 30.02 in 10.0 mi Calm Calm - N/A   Clear
12:55 AM 33.8 °F - 28.4 °F 81% 30.02 in 8.0 mi North - - N/A   Clear
1:15 AM 33.8 °F - 28.4 °F 81% 30.03 in 9.0 mi North - - N/A   Clear
1:35 AM 32.0 °F - 26.6 °F 80% 30.02 in 10.0 mi Calm Calm - N/A   Clear
1:55 AM 32.0 °F - 28.4 °F 87% 30.03 in 7.0 mi Calm Calm - N/A   Clear
2:15 AM 32.0 °F - 28.4 °F 87% 30.03 in 6.0 mi Calm Calm - N/A   Haze
2:35 AM 32.0 °F - 26.6 °F 80% 30.03 in 5.0 mi Calm Calm - N/A   Haze
2:55 AM 32.0 °F - 26.6 °F 80% 30.03 in 2.5 mi Calm Calm - N/A   Haze
3:15 AM 32.0 °F - 26.6 °F 80% 30.03 in 1.2 mi North - - N/A   Haze
3:35 AM 32.0 °F - 24.8 °F 75% 30.03 in 0.5 mi Calm Calm - N/A   Haze
3:55 AM 32.0 °F - 26.6 °F 80% 30.03 in 3.0 mi Calm Calm - N/A   Haze
4:15 AM 30.2 °F - 24.8 °F 80% 30.04 in 1.0 mi North - - N/A   Haze
4:35 AM 30.2 °F - 24.8 °F 80% 30.04 in 5.0 mi North - - N/A   Haze
4:55 AM 30.2 °F - 24.8 °F 80% 30.04 in 8.0 mi Calm Calm - N/A   Clear
5:15 AM 30.2 °F - 24.8 °F 80% 30.04 in 3.0 mi Calm Calm - N/A   Haze
5:35 AM 30.2 °F - 23.0 °F 75% 30.05 in 4.0 mi North - - N/A   Haze
5:55 AM 30.2 °F - 23.0 °F 75% 30.05 in 1.2 mi Calm Calm - N/A   Haze
6:15 AM 30.2 °F - 23.0 °F 75% 30.06 in 3.0 mi North - - N/A   Haze
6:35 AM 30.2 °F - 23.0 °F 75% 30.06 in 5.0 mi Calm Calm - N/A   Haze
6:55 AM 30.2 °F 26.7 °F 23.0 °F 75% 30.06 in 5.0 mi NE 3.5 mph - N/A   Haze
7:15 AM 32.0 °F 27.5 °F 24.8 °F 75% 30.07 in 6.0 mi NNE 4.6 mph - N/A   Haze
7:35 AM 33.8 °F 29.6 °F 28.4 °F 81% 30.08 in 7.0 mi North 4.6 mph - N/A   Clear
7:55 AM 35.6 °F 31.7 °F 30.2 °F 81% 30.09 in 7.0 mi North 4.6 mph - N/A   Clear
8:15 AM 37.4 °F 33.8 °F 32.0 °F 81% 30.10 in 7.0 mi North 4.6 mph - N/A   Clear
8:35 AM 39.2 °F 35.9 °F 32.0 °F 75% 30.10 in 9.0 mi NNE 4.6 mph - N/A   Clear
8:55 AM 42.8 °F 39.3 °F 33.8 °F 70% 30.10 in 9.0 mi NNE 5.8 mph - N/A   Clear
9:15 AM 46.4 °F 43.5 °F 33.8 °F 62% 30.10 in 9.0 mi NE 5.8 mph - N/A   Clear
9:35 AM 50.0 °F - 35.6 °F 58% 30.09 in 9.0 mi East 5.8 mph - N/A   Clear
9:55 AM 51.8 °F - 35.6 °F 54% 30.10 in 9.0 mi NE 4.6 mph - N/A   Clear
10:15 AM 53.6 °F - 37.4 °F 54% 30.10 in 10.0 mi Calm Calm - N/A   Clear
10:35 AM 55.4 °F - 39.2 °F 54% 30.10 in 9.0 mi NNE 3.5 mph - N/A   Clear
10:55 AM 57.2 °F - 39.2 °F 51% 30.10 in 9.0 mi NNE 5.8 mph - N/A   Clear
11:15 AM 57.2 °F - 41.0 °F 55% 30.09 in 9.0 mi Calm Calm - N/A   Clear
11:35 AM 59.0 °F - 42.8 °F 55% 30.09 in 10.0 mi North 4.6 mph - N/A   Clear
11:55 AM 60.8 °F - 44.6 °F 55% 30.08 in 9.0 mi NE 5.8 mph - N/A   Clear
12:15 PM 60.8 °F - 44.6 °F 55% 30.07 in 9.0 mi NW 6.9 mph - N/A   Clear
12:35 PM 62.6 °F - 44.6 °F 52% 30.06 in 10.0 mi NE 4.6 mph - N/A   Clear
12:55 PM 62.6 °F - 46.4 °F 55% 30.05 in 10.0 mi NW 3.5 mph - N/A   Clear
1:15 PM 64.4 °F - 46.4 °F 52% 30.03 in 9.0 mi North 5.8 mph - N/A   Clear
1:35 PM 64.4 °F - 48.2 °F 56% 30.02 in 9.0 mi NNE 8.1 mph - N/A   Clear
1:55 PM 66.2 °F - 50.0 °F 56% 30.01 in 9.0 mi East 3.5 mph - N/A   Clear
2:15 PM 68.0 °F - 51.8 °F 56% 30.00 in 5.0 mi ENE 3.5 mph - N/A   Haze
2:35 PM 68.0 °F - 51.8 °F 56% 29.99 in 10.0 mi NE 3.5 mph - N/A   Clear
2:55 PM 68.0 °F - 51.8 °F 56% 29.99 in 9.0 mi East 4.6 mph - N/A   Clear
3:15 PM 69.8 °F - 51.8 °F 53% 29.99 in 10.0 mi South 3.5 mph - N/A   Clear
3:35 PM 68.0 °F - 51.8 °F 56% 29.98 in 9.0 mi NNE 4.6 mph - N/A   Clear
3:55 PM 68.0 °F - 51.8 °F 56% 29.98 in 10.0 mi Calm Calm - N/A   Clear
4:15 PM 68.0 °F - 51.8 °F 56% 29.97 in 9.0 mi NE 3.5 mph - N/A   Clear
4:35 PM 66.2 °F - 50.0 °F 56% 29.97 in 9.0 mi ESE 4.6 mph - N/A   Clear
4:55 PM 66.2 °F - 48.2 °F 52% 29.97 in 10.0 mi ESE 4.6 mph - N/A   Clear
5:15 PM 64.4 °F - 48.2 °F 56% 29.97 in 10.0 mi Calm Calm - N/A   Clear
5:35 PM 62.6 °F - 46.4 °F 55% 29.97 in 10.0 mi Calm Calm - N/A   Clear
5:55 PM 59.0 °F - 42.8 °F 55% 29.97 in 9.0 mi Calm Calm - N/A   Clear
6:15 PM 55.4 °F - 39.2 °F 54% 29.97 in 9.0 mi Calm Calm - N/A   Clear
6:35 PM 51.8 °F - 35.6 °F 54% 29.97 in 10.0 mi Calm Calm - N/A   Clear
6:55 PM 51.8 °F - 35.6 °F 54% 29.97 in 10.0 mi ENE 3.5 mph - N/A   Clear
7:15 PM 53.6 °F - 37.4 °F 54% 29.97 in 10.0 mi ENE 4.6 mph - N/A   Clear
7:35 PM 53.6 °F - 37.4 °F 54% 29.98 in 10.0 mi ENE 4.6 mph - N/A   Clear
7:55 PM 53.6 °F - 37.4 °F 54% 29.98 in 10.0 mi ENE 4.6 mph - N/A   Clear
8:15 PM 51.8 °F - 39.2 °F 62% 29.97 in 10.0 mi ENE 3.5 mph - N/A   Clear
8:35 PM 51.8 °F - 41.0 °F 67% 29.97 in 10.0 mi ENE 4.6 mph - N/A   Clear
8:55 PM 51.8 °F - 39.2 °F 62% 29.96 in 10.0 mi East 5.8 mph - N/A   Clear
9:15 PM 51.8 °F - 37.4 °F 58% 29.96 in 10.0 mi East 8.1 mph - N/A   Clear
9:35 PM 51.8 °F - 39.2 °F 62% 29.96 in 10.0 mi East 5.8 mph - N/A   Clear
9:55 PM 51.8 °F - 39.2 °F 62% 29.95 in 10.0 mi ENE 4.6 mph - N/A   Clear
10:15 PM 50.0 °F - 39.2 °F 66% 29.94 in 10.0 mi ENE 4.6 mph - N/A   Clear
10:35 PM 50.0 °F - 39.2 °F 66% 29.93 in 10.0 mi East 5.8 mph - N/A   Clear
10:55 PM 50.0 °F - 39.2 °F 66% 29.91 in 10.0 mi ENE 6.9 mph - N/A   Clear
11:15 PM 50.0 °F - 39.2 °F 66% 29.92 in 10.0 mi East 4.6 mph - N/A   Clear
11:35 PM 50.0 °F - 39.2 °F 66% 29.92 in 10.0 mi East 5.8 mph - N/A   Clear
11:55 PM 50.0 °F - 39.2 °F 66% 29.90 in 10.0 mi East 4.6 mph - N/A   Clear